SAS193 ENBR-EGPH

Flight info

Callsign SAS193
Flight time 1h 17m
Altitude 36000
Route EPOTU DCT BEREP DCT ADN DCT NAXIL/N0406F240 P600 PTH
Aircraft A320/M-SDE3FGHIRWY/LB1

Departure

Time 2026-05-05 19:26
Airport Bergen Airport, Flesland (ENBR)

Arrival

Time 2026-05-05 20:43
Airport Edinburgh Airport (EGPH)
Time Latitude Longitude Altitude Speed Heading
2026-05-05 18:52 60.29090 5.22634 152 ft 0 kts 11°
2026-05-05 19:17 60.29083 5.22630 152 ft 3 kts 357°
2026-05-05 19:17 60.29074 5.22632 152 ft 3 kts 281°
2026-05-05 19:18 60.29072 5.22671 152 ft 3 kts 269°
2026-05-05 19:18 60.29072 5.22691 152 ft 1 kts 269°
2026-05-05 19:18 60.29072 5.22694 152 ft 0 kts 269°
2026-05-05 19:20 60.29072 5.22672 152 ft 6 kts 269°
2026-05-05 19:20 60.29050 5.22586 151 ft 8 kts 244°
2026-05-05 19:21 60.29037 5.22456 151 ft 11 kts 262°
2026-05-05 19:21 60.28974 5.22382 151 ft 13 kts 180°
2026-05-05 19:21 60.28899 5.22290 150 ft 14 kts 180°
2026-05-05 19:21 60.28792 5.22326 149 ft 16 kts 171°
2026-05-05 19:22 60.28673 5.22363 149 ft 17 kts 171°
2026-05-05 19:22 60.28553 5.22403 148 ft 16 kts 170°
2026-05-05 19:22 60.28444 5.22440 147 ft 14 kts 171°
2026-05-05 19:22 60.28357 5.22469 146 ft 11 kts 171°
2026-05-05 19:23 60.28297 5.22449 145 ft 8 kts 221°
2026-05-05 19:23 60.28284 5.22375 145 ft 4 kts 258°
2026-05-05 19:23 60.28284 5.22373 145 ft 0 kts 258°
2026-05-05 19:24 60.28282 5.22354 145 ft 3 kts 259°
2026-05-05 19:25 60.28290 5.22223 145 ft 11 kts 289°
2026-05-05 19:25 60.28355 5.22149 147 ft 12 kts 351°
2026-05-05 19:25 60.28522 5.22091 150 ft 52 kts 350°
2026-05-05 19:25 60.29089 5.21901 153 ft 110 kts 350°
2026-05-05 19:26 60.29989 5.21592 195 ft 148 kts 348°
2026-05-05 19:26 60.30989 5.21242 638 ft 147 kts 348°
2026-05-05 19:26 60.32036 5.20901 927 ft 159 kts 349°
2026-05-05 19:26 60.33164 5.20543 1312 ft 172 kts 349°
2026-05-05 19:27 60.34423 5.20118 1576 ft 195 kts 349°
2026-05-05 19:27 60.35843 5.19631 1914 ft 218 kts 349°
2026-05-05 19:27 60.37424 5.19093 2336 ft 241 kts 350°
2026-05-05 19:27 60.39108 5.18522 3100 ft 248 kts 349°
2026-05-05 19:28 60.40823 5.17941 3997 ft 251 kts 349°
2026-05-05 19:28 60.42558 5.17355 4903 ft 254 kts 349°
2026-05-05 19:28 60.44309 5.16761 5809 ft 256 kts 349°
2026-05-05 19:28 60.46056 5.15993 6672 ft 258 kts 337°
2026-05-05 19:29 60.47544 5.14005 7461 ft 259 kts 312°
2026-05-05 19:29 60.48470 5.10881 8269 ft 262 kts 287°
2026-05-05 19:29 60.48637 5.07193 9080 ft 267 kts 264°
2026-05-05 19:29 60.48261 5.03485 9898 ft 271 kts 251°
2026-05-05 19:30 60.47255 5.00222 10602 ft 279 kts 227°
2026-05-05 19:30 60.45593 4.98037 11102 ft 299 kts 202°
2026-05-05 19:30 60.43439 4.97568 11276 ft 328 kts 178°
2026-05-05 19:30 60.41095 4.98039 11518 ft 347 kts 176°
2026-05-05 19:31 60.38662 4.98591 12087 ft 355 kts 176°
2026-05-05 19:31 60.36195 4.99160 12752 ft 359 kts 176°
2026-05-05 19:31 60.33695 4.99723 13444 ft 363 kts 177°
2026-05-05 19:31 60.31165 5.00271 14098 ft 368 kts 177°
2026-05-05 19:32 60.28607 5.00808 14726 ft 371 kts 178°
2026-05-05 19:32 60.26040 5.01624 15350 ft 376 kts 173°
2026-05-05 19:32 60.23458 5.02635 15969 ft 379 kts 175°
2026-05-05 19:32 60.20850 5.02959 16562 ft 374 kts 189°
2026-05-05 19:33 60.18317 5.02023 17160 ft 368 kts 204°
2026-05-05 19:33 60.16015 4.99907 17806 ft 361 kts 218°
2026-05-05 19:33 60.14069 4.96822 18438 ft 355 kts 231°
2026-05-05 19:33 60.12547 4.92991 19040 ft 349 kts 243°
2026-05-05 19:34 60.11344 4.88786 19716 ft 347 kts 245°
2026-05-05 19:34 60.10146 4.84590 20427 ft 347 kts 245°
2026-05-05 19:34 60.08959 4.80451 21125 ft 347 kts 245°
2026-05-05 19:35 60.06541 4.72096 22353 ft 347 kts 245°
2026-05-05 19:35 60.05328 4.67911 22957 ft 348 kts 245°
2026-05-05 19:35 60.04111 4.63708 23542 ft 350 kts 245°
2026-05-05 19:35 60.02890 4.59484 23998 ft 352 kts 245°
2026-05-05 19:36 60.01661 4.55235 24427 ft 354 kts 245°
2026-05-05 19:36 60.00420 4.50959 24860 ft 356 kts 245°
2026-05-05 19:36 59.99171 4.46668 25285 ft 359 kts 245°
2026-05-05 19:36 59.97909 4.42347 25707 ft 361 kts 245°
2026-05-05 19:37 59.96638 4.38006 26125 ft 363 kts 245°
2026-05-05 19:37 59.95358 4.33638 26543 ft 366 kts 244°
2026-05-05 19:37 59.94066 4.29227 26944 ft 368 kts 244°
2026-05-05 19:37 59.92770 4.24809 27337 ft 370 kts 244°
2026-05-05 19:38 59.91463 4.20366 27721 ft 373 kts 244°
2026-05-05 19:38 59.90144 4.15903 28124 ft 375 kts 244°
2026-05-05 19:38 59.88839 4.11496 28651 ft 373 kts 244°
2026-05-05 19:38 59.87514 4.07058 29192 ft 372 kts 243°
2026-05-05 19:39 59.86123 4.02713 29721 ft 372 kts 242°
2026-05-05 19:39 59.84674 3.98452 30210 ft 372 kts 240°
2026-05-05 19:39 59.83195 3.94234 30628 ft 371 kts 240°
2026-05-05 19:39 59.81711 3.90032 30945 ft 372 kts 239°
2026-05-05 19:40 59.80223 3.85811 31307 ft 373 kts 239°
2026-05-05 19:40 59.78739 3.81581 31683 ft 374 kts 239°
2026-05-05 19:40 59.77260 3.77338 32073 ft 374 kts 240°
2026-05-05 19:40 59.75786 3.73090 32477 ft 374 kts 240°
2026-05-05 19:41 59.74311 3.68837 32869 ft 374 kts 239°
2026-05-05 19:41 59.72835 3.64583 33270 ft 375 kts 239°
2026-05-05 19:41 59.71353 3.60332 33663 ft 375 kts 239°
2026-05-05 19:41 59.69866 3.56082 34055 ft 375 kts 239°
2026-05-05 19:42 59.68396 3.51889 34364 ft 376 kts 239°
2026-05-05 19:42 59.66904 3.47633 34640 ft 377 kts 239°
2026-05-05 19:42 59.65404 3.43364 34914 ft 379 kts 239°
2026-05-05 19:42 59.63894 3.39078 35175 ft 380 kts 239°
2026-05-05 19:43 59.62377 3.34783 35425 ft 382 kts 239°
2026-05-05 19:43 59.60851 3.30470 35676 ft 383 kts 239°
2026-05-05 19:43 59.59302 3.26092 35922 ft 385 kts 239°
2026-05-05 19:44 59.56226 3.17397 36004 ft 395 kts 238°
2026-05-05 19:44 59.53034 3.08449 36046 ft 401 kts 238°
2026-05-05 19:45 59.49813 2.99465 36050 ft 402 kts 238°
2026-05-05 19:45 59.46589 2.90483 36048 ft 402 kts 238°
2026-05-05 19:46 59.43358 2.81511 36052 ft 402 kts 238°
2026-05-05 19:46 59.40116 2.72541 36054 ft 402 kts 238°
2026-05-05 19:47 59.36866 2.63599 36057 ft 403 kts 238°
2026-05-05 19:47 59.33604 2.54670 36066 ft 403 kts 238°
2026-05-05 19:48 59.30357 2.45792 36062 ft 403 kts 238°
2026-05-05 19:48 59.27083 2.36872 36036 ft 403 kts 238°
2026-05-05 19:49 59.23808 2.27998 36060 ft 403 kts 238°
2026-05-05 19:49 59.20526 2.19145 36068 ft 402 kts 237°
2026-05-05 19:50 59.17243 2.10301 36073 ft 402 kts 237°
2026-05-05 19:50 59.13957 2.01481 36079 ft 402 kts 237°
2026-05-05 19:51 59.10665 1.92680 36079 ft 402 kts 237°
2026-05-05 19:51 59.07388 1.83954 36079 ft 402 kts 237°
2026-05-05 19:52 59.04078 1.75194 36082 ft 402 kts 237°
2026-05-05 19:52 59.00705 1.66501 36039 ft 403 kts 236°
2026-05-05 19:53 58.97273 1.57915 36051 ft 403 kts 236°
2026-05-05 19:53 58.93829 1.49333 36064 ft 403 kts 236°
2026-05-05 19:54 58.90392 1.40757 36073 ft 403 kts 236°
2026-05-05 19:54 58.86957 1.32183 36077 ft 403 kts 236°
2026-05-05 19:55 58.83512 1.23629 36092 ft 403 kts 236°
2026-05-05 19:55 58.80058 1.15094 36085 ft 404 kts 235°
2026-05-05 19:56 58.76595 1.06570 36087 ft 404 kts 235°
2026-05-05 19:56 58.73130 0.98053 36093 ft 404 kts 235°
2026-05-05 19:57 58.69679 0.89609 36090 ft 404 kts 235°
2026-05-05 19:57 58.66193 0.81117 36096 ft 404 kts 235°
2026-05-05 19:58 58.62714 0.72644 36095 ft 404 kts 235°
2026-05-05 19:58 58.59221 0.64191 36108 ft 404 kts 235°
2026-05-05 19:59 58.55715 0.55756 36103 ft 405 kts 235°
2026-05-05 19:59 58.52795 0.48749 36106 ft 405 kts 235°
2026-05-05 20:00 58.49255 0.40276 36103 ft 405 kts 235°
2026-05-05 20:00 58.45756 0.31919 36077 ft 405 kts 234°
2026-05-05 20:01 58.42224 0.23524 36094 ft 406 kts 234°
2026-05-05 20:01 58.38682 0.15137 36101 ft 406 kts 234°
2026-05-05 20:02 58.35131 0.06755 36108 ft 406 kts 234°
2026-05-05 20:02 58.31583 -0.01622 36122 ft 407 kts 234°
2026-05-05 20:03 58.28020 -0.09990 36116 ft 407 kts 234°
2026-05-05 20:03 58.24446 -0.18341 36121 ft 407 kts 234°
2026-05-05 20:04 58.20893 -0.26626 36123 ft 407 kts 234°
2026-05-05 20:04 58.17307 -0.34945 36089 ft 407 kts 234°
2026-05-05 20:05 58.13707 -0.43244 36101 ft 408 kts 233°
2026-05-05 20:05 58.10103 -0.51545 36111 ft 408 kts 234°
2026-05-05 20:06 58.06498 -0.59842 36114 ft 408 kts 233°
2026-05-05 20:06 58.02883 -0.68105 36117 ft 408 kts 233°
2026-05-05 20:07 57.99263 -0.76360 36131 ft 408 kts 233°
2026-05-05 20:07 57.95639 -0.84598 36132 ft 408 kts 233°
2026-05-05 20:08 57.92007 -0.92817 36095 ft 408 kts 233°
2026-05-05 20:08 57.88369 -1.01023 36110 ft 408 kts 233°
2026-05-05 20:09 57.84753 -1.09167 36118 ft 409 kts 233°
2026-05-05 20:09 57.81079 -1.17405 36124 ft 409 kts 233°
2026-05-05 20:10 57.77443 -1.25511 36128 ft 409 kts 233°
2026-05-05 20:10 57.73774 -1.33663 36126 ft 409 kts 233°
2026-05-05 20:11 57.70101 -1.41825 36131 ft 410 kts 233°
2026-05-05 20:11 57.66416 -1.49971 35984 ft 411 kts 233°
2026-05-05 20:11 57.64575 -1.54025 35733 ft 409 kts 233°
2026-05-05 20:12 57.62732 -1.58080 35446 ft 409 kts 232°
2026-05-05 20:12 57.60893 -1.62125 35206 ft 409 kts 232°
2026-05-05 20:12 57.59050 -1.66167 34968 ft 409 kts 232°
2026-05-05 20:12 57.57209 -1.70198 34731 ft 408 kts 232°
2026-05-05 20:13 57.55371 -1.74215 34490 ft 407 kts 232°
2026-05-05 20:13 57.53529 -1.78229 34257 ft 407 kts 232°
2026-05-05 20:13 57.51688 -1.82224 34012 ft 406 kts 233°
2026-05-05 20:13 57.49856 -1.86200 33732 ft 405 kts 233°
2026-05-05 20:14 57.48022 -1.90174 33459 ft 405 kts 233°
2026-05-05 20:14 57.46189 -1.94146 33186 ft 405 kts 233°
2026-05-05 20:14 57.44373 -1.98072 32919 ft 405 kts 233°
2026-05-05 20:14 57.42537 -2.02047 32646 ft 406 kts 233°
2026-05-05 20:15 57.40700 -2.06020 32384 ft 406 kts 233°
2026-05-05 20:15 57.38858 -2.09992 32127 ft 407 kts 232°
2026-05-05 20:15 57.37010 -2.13962 31861 ft 407 kts 232°
2026-05-05 20:15 57.35154 -2.17938 31569 ft 409 kts 232°
2026-05-05 20:16 57.33287 -2.21923 31315 ft 409 kts 232°
2026-05-05 20:16 57.31359 -2.25800 31060 ft 410 kts 227°
2026-05-05 20:16 57.29166 -2.29199 30809 ft 412 kts 220°
2026-05-05 20:16 57.26832 -2.32246 30562 ft 410 kts 219°
2026-05-05 20:17 57.24495 -2.35277 30313 ft 409 kts 219°
2026-05-05 20:17 57.22170 -2.38288 30032 ft 407 kts 219°
2026-05-05 20:17 57.19855 -2.41282 29751 ft 405 kts 219°
2026-05-05 20:17 57.17555 -2.44255 29463 ft 403 kts 219°
2026-05-05 20:18 57.15259 -2.47224 29178 ft 402 kts 219°
2026-05-05 20:18 57.12975 -2.50177 28893 ft 400 kts 219°
2026-05-05 20:18 57.10698 -2.53115 28619 ft 399 kts 219°
2026-05-05 20:18 57.08454 -2.55999 28329 ft 398 kts 219°
2026-05-05 20:19 57.06187 -2.58913 28046 ft 398 kts 219°
2026-05-05 20:19 57.03925 -2.61821 27774 ft 397 kts 219°
2026-05-05 20:19 57.01664 -2.64719 27505 ft 396 kts 219°
2026-05-05 20:19 56.99409 -2.67598 27237 ft 394 kts 219°
2026-05-05 20:20 56.97174 -2.70448 26754 ft 389 kts 219°
2026-05-05 20:20 56.94960 -2.73273 26295 ft 384 kts 219°
2026-05-05 20:20 56.92802 -2.76018 26166 ft 372 kts 219°
2026-05-05 20:20 56.90700 -2.78675 26035 ft 362 kts 219°
2026-05-05 20:21 56.88654 -2.81266 25831 ft 354 kts 219°
2026-05-05 20:21 56.86639 -2.83827 25486 ft 351 kts 219°
2026-05-05 20:21 56.84644 -2.86362 25111 ft 349 kts 219°
2026-05-05 20:21 56.82655 -2.88885 24718 ft 347 kts 219°
2026-05-05 20:22 56.80676 -2.91389 24300 ft 345 kts 219°
2026-05-05 20:22 56.78700 -2.93880 23846 ft 346 kts 219°
2026-05-05 20:22 56.76719 -2.96373 23365 ft 345 kts 219°
2026-05-05 20:22 56.74749 -2.98857 22896 ft 343 kts 219°
2026-05-05 20:23 56.72791 -3.01324 22450 ft 341 kts 218°
2026-05-05 20:23 56.70852 -3.03758 22187 ft 334 kts 218°
2026-05-05 20:23 56.68959 -3.06129 21907 ft 328 kts 218°
2026-05-05 20:23 56.67091 -3.08465 21529 ft 325 kts 218°
2026-05-05 20:24 56.65234 -3.10788 21132 ft 323 kts 218°
2026-05-05 20:24 56.63387 -3.13097 20745 ft 321 kts 218°
2026-05-05 20:24 56.61551 -3.15392 20362 ft 320 kts 218°
2026-05-05 20:24 56.59716 -3.17685 19546 ft 331 kts 218°
2026-05-05 20:25 56.57775 -3.20111 18599 ft 346 kts 218°
2026-05-05 20:25 56.55750 -3.22639 17490 ft 361 kts 218°
2026-05-05 20:25 56.53647 -3.25253 16593 ft 370 kts 217°
2026-05-05 20:25 56.51517 -3.27885 15891 ft 371 kts 217°
2026-05-05 20:26 56.49409 -3.30547 15355 ft 367 kts 219°
2026-05-05 20:26 56.47395 -3.33350 14830 ft 363 kts 222°
2026-05-05 20:26 56.45452 -3.36233 14314 ft 359 kts 223°
2026-05-05 20:26 56.43550 -3.39133 13790 ft 356 kts 223°
2026-05-05 20:27 56.41663 -3.42016 13221 ft 354 kts 223°
2026-05-05 20:27 56.39786 -3.44854 12661 ft 351 kts 223°
2026-05-05 20:27 56.37908 -3.47655 12104 ft 349 kts 223°
2026-05-05 20:27 56.36038 -3.50415 11565 ft 347 kts 223°
2026-05-05 20:28 56.34173 -3.53152 11033 ft 345 kts 223°
2026-05-05 20:28 56.32315 -3.55867 10517 ft 343 kts 222°
2026-05-05 20:28 56.30462 -3.58569 9989 ft 342 kts 222°
2026-05-05 20:28 56.28616 -3.61254 9415 ft 340 kts 222°
2026-05-05 20:29 56.26777 -3.63927 8842 ft 339 kts 222°
2026-05-05 20:29 56.24949 -3.66585 8271 ft 334 kts 221°
2026-05-05 20:29 56.23184 -3.69149 7712 ft 319 kts 222°
2026-05-05 20:29 56.21487 -3.71611 7178 ft 307 kts 221°
2026-05-05 20:30 56.19854 -3.73980 6650 ft 297 kts 220°
2026-05-05 20:30 56.18265 -3.76285 6092 ft 289 kts 220°
2026-05-05 20:30 56.16720 -3.78529 5536 ft 283 kts 220°
2026-05-05 20:30 56.15213 -3.80715 5307 ft 273 kts 219°
2026-05-05 20:31 56.13756 -3.82824 5184 ft 265 kts 219°
2026-05-05 20:31 56.12325 -3.84810 5053 ft 256 kts 211°
2026-05-05 20:31 56.10708 -3.85908 4920 ft 244 kts 186°
2026-05-05 20:31 56.09040 -3.86140 4788 ft 239 kts 181°
2026-05-05 20:32 56.07390 -3.86317 4653 ft 237 kts 181°
2026-05-05 20:32 56.05753 -3.86492 4516 ft 236 kts 180°
2026-05-05 20:32 56.04115 -3.86665 4382 ft 235 kts 181°
2026-05-05 20:32 56.02487 -3.86840 4243 ft 236 kts 181°
2026-05-05 20:33 56.00851 -3.87018 4121 ft 239 kts 181°
2026-05-05 20:33 55.99191 -3.87197 4010 ft 239 kts 180°
2026-05-05 20:33 55.97540 -3.87375 3992 ft 238 kts 181°
2026-05-05 20:33 55.95885 -3.87553 3995 ft 239 kts 181°
2026-05-05 20:34 55.94223 -3.87731 3994 ft 239 kts 180°
2026-05-05 20:34 55.92561 -3.87913 3991 ft 239 kts 180°
2026-05-05 20:34 55.90902 -3.88095 3992 ft 239 kts 181°
2026-05-05 20:34 55.89245 -3.88277 3992 ft 239 kts 180°
2026-05-05 20:35 55.87587 -3.88458 3992 ft 239 kts 181°
2026-05-05 20:35 55.85932 -3.88638 3993 ft 238 kts 180°
2026-05-05 20:35 55.84277 -3.88814 3994 ft 238 kts 181°
2026-05-05 20:35 55.82620 -3.88986 3992 ft 239 kts 179°
2026-05-05 20:36 55.81024 -3.88509 3988 ft 231 kts 149°
2026-05-05 20:36 55.79875 -3.86639 3990 ft 223 kts 116°
2026-05-05 20:36 55.79489 -3.84046 3987 ft 217 kts 85°
2026-05-05 20:36 55.79908 -3.81512 3989 ft 216 kts 59°
2026-05-05 20:37 55.80675 -3.79208 3987 ft 217 kts 59°
2026-05-05 20:37 55.81178 -3.77706 3981 ft 209 kts 59°
2026-05-05 20:37 55.82124 -3.74900 3990 ft 188 kts 59°
2026-05-05 20:37 55.82798 -3.72940 3996 ft 185 kts 59°
2026-05-05 20:38 55.83470 -3.70990 4003 ft 184 kts 58°
2026-05-05 20:38 55.84125 -3.69088 3995 ft 178 kts 59°
2026-05-05 20:38 55.84779 -3.67184 3998 ft 177 kts 59°
2026-05-05 20:38 55.85423 -3.65308 3722 ft 181 kts 59°
2026-05-05 20:39 55.86085 -3.63378 3455 ft 180 kts 59°
2026-05-05 20:39 55.86735 -3.61485 3198 ft 178 kts 59°
2026-05-05 20:39 55.87377 -3.59608 2943 ft 176 kts 60°
2026-05-05 20:39 55.88012 -3.57756 2702 ft 174 kts 60°
2026-05-05 20:40 55.88641 -3.55917 2464 ft 173 kts 61°
2026-05-05 20:40 55.89262 -3.54099 2254 ft 169 kts 61°
2026-05-05 20:40 55.89869 -3.52323 1989 ft 165 kts 61°
2026-05-05 20:40 55.90441 -3.50651 1768 ft 151 kts 62°
2026-05-05 20:41 55.90965 -3.49115 1546 ft 140 kts 62°
2026-05-05 20:41 55.91461 -3.47657 1360 ft 136 kts 62°
2026-05-05 20:41 55.91950 -3.46222 1196 ft 135 kts 62°
2026-05-05 20:41 55.92436 -3.44792 971 ft 136 kts 62°
2026-05-05 20:42 55.92921 -3.43366 781 ft 135 kts 63°
2026-05-05 20:42 55.93408 -3.41940 576 ft 136 kts 62°
2026-05-05 20:42 55.93919 -3.40495 414 ft 139 kts 62°
2026-05-05 20:42 55.94396 -3.39039 193 ft 138 kts 62°
2026-05-05 20:43 55.94871 -3.37582 114 ft 109 kts 59°
2026-05-05 20:43 55.95139 -3.36830 113 ft 58 kts 57°
2026-05-05 20:43 55.95255 -3.36429 111 ft 17 kts 114°
2026-05-05 20:43 55.95210 -3.36368 113 ft 0 kts 148°
2026-05-05 20:44 55.95192 -3.36348 115 ft 5 kts 149°
2026-05-05 20:45 55.95128 -3.36182 114 ft 10 kts 108°
2026-05-05 20:45 55.95113 -3.36099 113 ft 11 kts 108°
2026-05-05 20:45 55.95092 -3.35987 115 ft 9 kts 111°
2026-05-05 20:46 55.95058 -3.35875 114 ft 11 kts 118°
2026-05-05 20:46 55.94997 -3.35849 116 ft 10 kts 201°
2026-05-05 20:46 55.94952 -3.35859 116 ft 5 kts 175°
2026-05-05 20:46 55.94915 -3.35882 114 ft 7 kts 231°
2026-05-05 20:47 55.94900 -3.35965 116 ft 4 kts 253°
2026-05-05 20:47 55.94894 -3.36000 113 ft 2 kts 255°
2026-05-05 20:47 55.94894 -3.36003 113 ft 0 kts 255°